Time,TemperatureF,DewpointF,PressureIn,WindDirection,WindDirectionDegrees,WindSpeedMPH,WindSpeedGustMPH,Humidity,HourlyPrecipIn,Conditions,Clouds,dailyrainin,SoftwareType,DateUTC
2013-08-23 00:12:00,64.0,50.0,29.91,NE,45,4.0,-999.0,60,-99.99,,,-99.99,,2013-08-23 06:12:00,
2013-08-23 00:21:00,65.0,49.0,29.91,NNE,19,4.0,-999.0,57,-99.99,,,-99.99,,2013-08-23 06:21:00,
2013-08-23 00:41:00,64.0,50.0,29.91,NE,45,4.0,-999.0,60,-99.99,,,-99.99,,2013-08-23 06:41:00,
2013-08-23 00:52:00,64.0,49.0,29.91,ENE,57,3.0,-999.0,58,-99.99,,,-99.99,,2013-08-23 06:52:00,
2013-08-23 01:11:00,67.0,49.0,29.91,NE,44,3.0,-999.0,52,-99.99,,,-99.99,,2013-08-23 07:11:00,
2013-08-23 01:21:00,67.0,48.0,29.90,NNE,18,4.0,-999.0,51,-99.99,,,-99.99,,2013-08-23 07:21:00,
2013-08-23 01:52:00,64.0,48.0,29.90,NNE,24,4.0,-999.0,57,-99.99,,,-99.99,,2013-08-23 07:52:00,
2013-08-23 02:12:00,63.0,49.0,29.89,NNE,32,3.0,-999.0,60,-99.99,,,-99.99,,2013-08-23 08:12:00,
2013-08-23 02:22:00,62.0,49.0,29.90,North,355,3.0,-999.0,63,-99.99,,,-99.99,,2013-08-23 08:22:00,
2013-08-23 02:52:00,60.0,51.0,29.90,North,355,2.0,-999.0,73,-99.99,,,-99.99,,2013-08-23 08:52:00,
2013-08-23 03:11:00,60.0,51.0,29.90,NW,304,1.0,-999.0,72,-99.99,,,-99.99,,2013-08-23 09:11:00,
2013-08-23 03:21:00,60.0,50.0,29.90,NW,304,0.0,-999.0,70,-99.99,,,-99.99,,2013-08-23 09:21:00,
2013-08-23 03:53:00,60.0,50.0,29.90,WNW,301,0.0,-999.0,69,-99.99,,,-99.99,,2013-08-23 09:53:00,
2013-08-23 04:13:00,61.0,50.0,29.91,WNW,302,0.0,-999.0,68,-99.99,,,-99.99,,2013-08-23 10:13:00,
2013-08-23 04:22:00,60.0,49.0,29.91,NW,313,0.0,-999.0,68,-99.99,,,-99.99,,2013-08-23 10:22:00,
2013-08-23 04:42:00,59.0,49.0,29.90,NNE,24,3.0,-999.0,70,-99.99,,,-99.99,,2013-08-23 10:42:00,
2013-08-23 04:52:00,58.0,50.0,29.90,NNE,17,3.0,-999.0,74,-99.99,,,-99.99,,2013-08-23 10:52:00,
2013-08-23 05:11:00,58.0,49.0,29.90,NE,40,3.0,-999.0,72,-99.99,,,-99.99,,2013-08-23 11:11:00,
2013-08-23 05:22:00,57.0,49.0,29.90,NE,46,6.0,-999.0,74,-99.99,,,-99.99,,2013-08-23 11:22:00,
2013-08-23 05:42:00,58.0,50.0,29.90,North,360,2.0,-999.0,75,-99.99,,,-99.99,,2013-08-23 11:42:00,
2013-08-23 05:53:00,58.0,50.0,29.90,North,11,0.0,-999.0,75,-99.99,,,-99.99,,2013-08-23 11:53:00,
2013-08-23 06:11:00,57.0,50.0,29.91,WNW,296,0.0,-999.0,76,-99.99,,,-99.99,,2013-08-23 12:11:00,
2013-08-23 06:22:00,58.0,49.0,29.91,NW,313,0.0,-999.0,73,-99.99,,,-99.99,,2013-08-23 12:22:00,
2013-08-23 06:42:00,58.0,48.0,29.92,WNW,298,0.0,-999.0,69,-99.99,,,-99.99,,2013-08-23 12:42:00,
2013-08-23 06:52:00,58.0,48.0,29.92,WNW,298,0.0,-999.0,69,-99.99,,,-99.99,,2013-08-23 12:52:00,
2013-08-23 07:11:00,59.0,47.0,29.91,WNW,290,0.0,-999.0,64,-99.99,,,-99.99,,2013-08-23 13:11:00,
2013-08-23 07:22:00,61.0,47.0,29.91,NW,324,0.0,-999.0,61,-99.99,,,-99.99,,2013-08-23 13:22:00,
2013-08-23 07:41:00,62.0,48.0,29.91,NW,317,1.0,-999.0,60,-99.99,,,-99.99,,2013-08-23 13:41:00,
2013-08-23 07:52:00,62.0,47.0,29.90,NW,321,0.0,-999.0,59,-99.99,,,-99.99,,2013-08-23 13:52:00,
2013-08-23 08:11:00,63.0,48.0,29.90,NW,321,0.0,-999.0,59,-99.99,,,-99.99,,2013-08-23 14:11:00,
2013-08-23 08:21:00,65.0,49.0,29.90,WSW,240,0.0,-999.0,57,-99.99,,,-99.99,,2013-08-23 14:21:00,
2013-08-23 08:42:00,63.0,49.0,29.91,WSW,238,4.0,-999.0,61,-99.99,,,-99.99,,2013-08-23 14:42:00,
2013-08-23 08:52:00,63.0,48.0,29.90,WSW,258,2.0,-999.0,59,-99.99,,,-99.99,,2013-08-23 14:52:00,
2013-08-23 09:11:00,65.0,49.0,29.91,WSW,248,0.0,-999.0,57,-99.99,,,-99.99,,2013-08-23 15:11:00,
2013-08-23 09:22:00,67.0,49.0,29.90,West,268,0.0,-999.0,52,-99.99,,,-99.99,,2013-08-23 15:22:00,
2013-08-23 09:43:00,69.0,49.0,29.90,West,268,0.0,-999.0,49,-99.99,,,-99.99,,2013-08-23 15:43:00,
2013-08-23 09:54:00,71.0,50.0,29.90,West,263,0.0,-999.0,47,-99.99,,,-99.99,,2013-08-23 15:54:00,
2013-08-23 10:13:00,73.0,50.0,29.90,NNE,21,1.0,-999.0,45,-99.99,,,-99.99,,2013-08-23 16:13:00,
2013-08-23 10:24:00,75.0,52.0,29.89,NNE,13,1.0,-999.0,44,-99.99,,,-99.99,,2013-08-23 16:24:00,
2013-08-23 10:42:00,76.0,50.0,29.89,NNE,30,1.0,-999.0,40,-99.99,,,-99.99,,2013-08-23 16:42:00,
2013-08-23 10:53:00,77.0,51.0,29.88,ENE,60,4.0,-999.0,40,-99.99,,,-99.99,,2013-08-23 16:53:00,
2013-08-23 11:12:00,77.0,49.0,29.88,North,5,2.0,-999.0,38,-99.99,,,-99.99,,2013-08-23 17:12:00,
2013-08-23 11:23:00,77.0,49.0,29.88,North,5,2.0,-999.0,38,-99.99,,,-99.99,,2013-08-23 17:23:00,
2013-08-23 11:42:00,80.0,48.0,29.88,NE,55,1.0,-999.0,33,-99.99,,,-99.99,,2013-08-23 17:42:00,
2013-08-23 11:53:00,82.0,48.0,29.88,NNE,13,1.0,-999.0,31,-99.99,,,-99.99,,2013-08-23 17:53:00,
2013-08-23 12:12:00,83.0,50.0,29.87,NW,323,1.0,-999.0,32,-99.99,,,-99.99,,2013-08-23 18:12:00,
2013-08-23 12:22:00,84.0,50.0,29.87,NNE,15,1.0,-999.0,31,-99.99,,,-99.99,,2013-08-23 18:22:00,
2013-08-23 12:52:00,83.0,47.0,29.85,SSE,152,3.0,-999.0,29,-99.99,,,-99.99,,2013-08-23 18:52:00,
2013-08-23 13:11:00,81.0,45.0,29.85,SSE,161,1.0,-999.0,28,-99.99,,,-99.99,,2013-08-23 19:11:00,
2013-08-23 13:21:00,83.0,47.0,29.84,SSE,167,2.0,-999.0,28,-99.99,,,-99.99,,2013-08-23 19:21:00,
2013-08-23 13:42:00,84.0,45.0,29.83,SE,127,1.0,-999.0,26,-99.99,,,-99.99,,2013-08-23 19:42:00,
2013-08-23 13:52:00,84.0,44.0,29.83,East,101,2.0,-999.0,25,-99.99,,,-99.99,,2013-08-23 19:52:00,
2013-08-23 14:12:00,84.0,44.0,29.81,SSE,150,1.0,-999.0,25,-99.99,,,-99.99,,2013-08-23 20:12:00,
2013-08-23 14:22:00,85.0,47.0,29.81,North,360,3.0,-999.0,27,-99.99,,,-99.99,,2013-08-23 20:22:00,
2013-08-23 14:42:00,86.0,41.0,29.80,ENE,57,2.0,-999.0,21,-99.99,,,-99.99,,2013-08-23 20:42:00,
2013-08-23 14:52:00,86.0,43.0,29.79,SSE,165,1.0,-999.0,22,-99.99,,,-99.99,,2013-08-23 20:52:00,
2013-08-23 15:11:00,86.0,41.0,29.78,NNE,14,1.0,-999.0,21,-99.99,,,-99.99,,2013-08-23 21:11:00,
2013-08-23 15:21:00,87.0,42.0,29.78,ENE,73,3.0,-999.0,21,-99.99,,,-99.99,,2013-08-23 21:21:00,
2013-08-23 15:54:00,87.0,44.0,29.76,South,186,3.0,-999.0,22,-99.99,,,-99.99,,2013-08-23 21:54:00,
2013-08-23 16:13:00,89.0,43.0,29.75,West,266,4.0,-999.0,20,-99.99,,,-99.99,,2013-08-23 22:13:00,
2013-08-23 16:24:00,87.0,44.0,29.75,East,87,5.0,-999.0,22,-99.99,,,-99.99,,2013-08-23 22:24:00,
2013-08-23 16:43:00,87.0,42.0,29.74,SSE,158,2.0,-999.0,21,-99.99,,,-99.99,,2013-08-23 22:43:00,
2013-08-23 16:53:00,87.0,44.0,29.74,ESE,108,0.0,-999.0,22,-99.99,,,-99.99,,2013-08-23 22:53:00,
2013-08-23 17:12:00,86.0,43.0,29.73,SE,131,0.0,-999.0,22,-99.99,,,-99.99,,2013-08-23 23:12:00,
2013-08-23 17:22:00,86.0,44.0,29.73,NW,323,1.0,-999.0,23,-99.99,,,-99.99,,2013-08-23 23:22:00,
2013-08-23 17:43:00,85.0,43.0,29.72,NNW,334,1.0,-999.0,23,-99.99,,,-99.99,,2013-08-23 23:43:00,
2013-08-23 17:54:00,85.0,44.0,29.72,NNE,24,0.0,-999.0,24,-99.99,,,-99.99,,2013-08-23 23:54:00,
2013-08-23 18:11:00,84.0,45.0,29.73,WNW,288,0.0,-999.0,26,-99.99,,,-99.99,,2013-08-24 00:11:00,
2013-08-23 18:21:00,80.0,45.0,29.74,West,281,18.0,-999.0,29,-99.99,,,-99.99,,2013-08-24 00:21:00,
2013-08-23 18:53:00,77.0,47.0,29.76,WNW,292,10.0,-999.0,35,-99.99,,,-99.99,,2013-08-24 00:53:00,
2013-08-23 19:11:00,76.0,47.0,29.76,WNW,289,11.0,-999.0,36,-99.99,,,-99.99,,2013-08-24 01:11:00,
2013-08-23 19:22:00,75.0,46.0,29.76,WNW,296,12.0,-999.0,36,-99.99,,,-99.99,,2013-08-24 01:22:00,
2013-08-23 19:42:00,75.0,47.0,29.77,WNW,293,13.0,-999.0,37,-99.99,,,-99.99,,2013-08-24 01:42:00,
2013-08-23 19:53:00,75.0,48.0,29.76,WNW,303,6.0,-999.0,38,-99.99,,,-99.99,,2013-08-24 01:53:00,
2013-08-23 20:11:00,74.0,50.0,29.77,NW,309,5.0,-999.0,43,-99.99,,,-99.99,,2013-08-24 02:11:00,
2013-08-23 20:22:00,73.0,51.0,29.77,NNW,338,1.0,-999.0,46,-99.99,,,-99.99,,2013-08-24 02:22:00,
2013-08-23 20:42:00,72.0,51.0,29.76,NNW,332,3.0,-999.0,48,-99.99,,,-99.99,,2013-08-24 02:42:00,
2013-08-23 20:52:00,71.0,51.0,29.77,NE,41,5.0,-999.0,50,-99.99,,,-99.99,,2013-08-24 02:52:00,
2013-08-23 21:11:00,71.0,50.0,29.78,North,355,7.0,-999.0,48,-99.99,,,-99.99,,2013-08-24 03:11:00,
2013-08-23 21:22:00,70.0,49.0,29.79,NE,34,4.0,-999.0,47,-99.99,,,-99.99,,2013-08-24 03:22:00,
2013-08-23 21:44:00,70.0,49.0,29.79,NE,46,0.0,-999.0,47,-99.99,,,-99.99,,2013-08-24 03:44:00,
2013-08-23 21:54:00,70.0,48.0,29.80,NE,48,4.0,-999.0,46,-99.99,,,-99.99,,2013-08-24 03:54:00,
2013-08-23 22:14:00,72.0,47.0,29.81,ESE,120,11.0,-999.0,41,-99.99,,,-99.99,,2013-08-24 04:14:00,
2013-08-23 22:24:00,73.0,48.0,29.81,ESE,103,6.0,-999.0,41,-99.99,,,-99.99,,2013-08-24 04:24:00,
2013-08-23 22:44:00,72.0,49.0,29.80,SE,128,8.0,-999.0,44,-99.99,,,-99.99,,2013-08-24 04:44:00,
2013-08-23 22:53:00,71.0,49.0,29.80,SSE,151,0.0,-999.0,45,-99.99,,,-99.99,,2013-08-24 04:53:00,
2013-08-23 23:12:00,71.0,49.0,29.79,SSE,151,0.0,-999.0,45,-99.99,,,-99.99,,2013-08-24 05:12:00,
2013-08-23 23:23:00,70.0,48.0,29.79,West,281,0.0,-999.0,46,-99.99,,,-99.99,,2013-08-24 05:23:00,
2013-08-23 23:43:00,69.0,48.0,29.79,WNW,287,0.0,-999.0,47,-99.99,,,-99.99,,2013-08-24 05:43:00,
2013-08-23 23:53:00,69.0,47.0,29.80,West,271,6.0,-999.0,46,-99.99,,,-99.99,,2013-08-24 05:53:00,